[[{"header":{"parameterUnit":"m.s-1","parameterCategory":2,"la1":30.2991,"la2":30.254,"lo1":-89.0895,"lo2":-89.0444,"dy":0.0017,"dx":0.0017,"nx":28,"ny":28,"refTime":"2025-01-29T09:00:00:Z","depth":"0","parameterNumber":2,"parameterNumberName":"U-component_of_CURRENTS"},"data":[0,0,0,0,0,0,0,0,0,0,0,0,0,0,0,0,0,0,0,0,0,0,0,0,0,0,0,0,0,0,0,0,0,0,0,0,0,0,0,0,0,0,0,0,0,0,0,0,0,0,0,0,0,0,0,0,0,0,0.3025,0.3025,0,0.3017,0.3017,0.3017,0.2998,0.2998,0.2998,0.2998,0.2949,0.2948,0.2947,0,0,0,0,0,0,0,0,0,0,0,0,0,0.3007,0.3008,0.3024,0.3025,0.3025,0.3017,0.3017,0.3016,0.2998,0.2998,0.2998,0.2998,0.295,0.2948,0.2947,0,0,0,0,0,0,0,0,0,0,0,0,0,0.3005,0.3008,0.3024,0.3018,0.3017,0.3017,0.3017,0.3016,0.2998,0.2998,0.2998,0.2998,0.295,0.2948,0.2947,0.2936,0,0,0.2941,0.294,0,0,0,0,0,0,0,0,0.3006,0.3006,0.3018,0.3018,0.3018,0.3012,0.2993,0.2989,0.2998,0.3001,0.2998,0.2998,0.2969,0.2966,0.2959,0.2934,0.2932,0.2941,0.2939,0.2939,0.2938,0,0,0,0,0,0,0,0.3006,0.3006,0.3018,0.3019,0.3018,0.301,0.301,0.2992,0.2982,0.3001,0.3001,0.3006,0.2968,0.2961,0.2958,0.2931,0.2941,0.2939,0.2938,0.2937,0.2942,0.2943,0,0,0,0,0,0,0.3015,0.3006,0.3018,0.3018,0.3016,0.3011,0.301,0.3011,0.2983,0.298,0.3006,0.3005,0.2965,0.296,0.2956,0.2981,0.2939,0.2937,0.2936,0.294,0.2942,0.2943,0,0,0,0,0,0,0.3015,0.3016,0.3018,0.3015,0.3015,0.3012,0.3012,0.3011,0.3009,0.2988,0.2983,0.3007,0.2964,0.2959,0.2952,0.2977,0.2936,0.2934,0.2939,0.2941,0.2943,0.3005,0,0,0,0,0,0,0.3014,0.3016,0.3015,0.3016,0.3016,0.3023,0.3013,0.3011,0.3014,0.3013,0.2987,0.2982,0.2964,0.2955,0.295,0.2974,0.2933,0.2937,0.294,0.2942,0.3002,0.3009,0.3015,0,0,0,0,0,0.3013,0.3013,0.3015,0.3017,0.3017,0.3024,0.3023,0.3018,0.3014,0.3015,0.3004,0.2983,0.2967,0.2954,0.2948,0.2972,0.2936,0.2939,0.2942,0.2998,0.3007,0.3015,0,0,0,0,0,0,0.2998,0.3012,0.3014,0.3016,0.3024,0.3023,0.3024,0.3023,0.3014,0.3014,0.299,0.2984,0.2993,0.2973,0.2959,0.2983,0.2952,0.2954,0.2997,0.3006,0.3012,0.3037,0.2931,0,0,0,0,0,0.2998,0.3005,0.3016,0.3018,0.3025,0.3026,0.3027,0.3028,0.3025,0.3021,0.3006,0.2997,0.3,0.2994,0.2987,0.2989,0.3015,0.3004,0.3011,0.3017,0.3035,0.3087,0.31,0.2953,0.2953,0.2952,0,0,0.2991,0.3001,0.3004,0.3016,0.3021,0.3035,0.3026,0.3035,0.3051,0.3017,0.3024,0.3017,0.3007,0.3018,0.3021,0.3003,0.3079,0.3021,0.3026,0.304,0.3091,0.3106,0.3119,0.2954,0.2954,0.2954,0,0,0.299,0.2994,0.3005,0.3017,0.3036,0.3041,0.3048,0.3055,0.3061,0.3069,0.3061,0.3074,0.3056,0.3067,0.3069,0.3109,0.3116,0.3102,0.3152,0.3202,0.3215,0.3227,0.3309,0.3327,0.3103,0.3103,0.3103,0,0.2983,0.2998,0.3008,0.3026,0.3039,0.3048,0.3066,0.3078,0.3081,0.3095,0.308,0.3102,0.3088,0.3129,0.3145,0.3127,0.3164,0.3119,0.3213,0.3225,0.3236,0.3316,0.3336,0.3106,0.3106,0.3105,0.3105,0,0.2992,0.3008,0.3017,0.3047,0.3061,0.3078,0.3103,0.312,0.3129,0.3142,0.3181,0.3177,0.3192,0.3195,0.318,0.3252,0.3259,0.3219,0.3194,0.3255,0.3336,0.3355,0.3111,0.311,0.3109,0.3108,0,0,0.2964,0.3015,0.3017,0.3038,0.3076,0.3087,0.3128,0.3166,0.3211,0.3215,0.3285,0.3282,0.3287,0.3292,0.3286,0.3331,0.3445,0.3311,0.3312,0.3398,0.359,0.3552,0.3569,0.3417,0.342,0.3423,0.3627,0,0.2969,0.3002,0.3032,0.3067,0.3085,0.3122,0.3165,0.3203,0.3245,0.3316,0.3339,0.3394,0.3323,0.3357,0.3384,0.344,0.3493,0.3395,0.3514,0.3519,0.3481,0.3589,0.3423,0.3586,0.3646,0.3649,0.3651,0,0.2964,0.2989,0.3021,0.3087,0.3102,0.3126,0.3205,0.3252,0.3354,0.3396,0.3449,0.3484,0.3562,0.3503,0.3605,0.3546,0.3574,0.3608,0.3615,0.357,0.3515,0.3529,0.3618,0.3492,0.3681,0.3678,0.3676,0,0.2924,0.2982,0.3006,0.3023,0.3098,0.3125,0.3172,0.3262,0.3325,0.3468,0.354,0.3614,0.3675,0.3722,0.3759,0.3701,0.3898,0.3821,0.3818,0.3817,0.3696,0.3678,0.3677,0.3906,0.3905,0.3905,0.3904,0,0.2912,0.2934,0.2986,0.2997,0.305,0.3106,0.3184,0.3259,0.3386,0.348,0.3571,0.3665,0.3728,0.383,0.3848,0.3909,0.3958,0.3871,0.3874,0.3715,0.3697,0.3593,0.3537,0.3912,0.3911,0.3909,0.3908,0,0.2875,0.2905,0.294,0.3006,0.3031,0.3069,0.3182,0.3248,0.3372,0.3515,0.3572,0.373,0.3865,0.3942,0.4064,0.4014,0.3981,0.4096,0.3925,0.3903,0.3736,0.3689,0.3632,0.3523,0.4138,0.4138,0.4138,0,0.2867,0.2875,0.2935,0.2963,0.2994,0.3057,0.3111,0.3228,0.3302,0.3537,0.3606,0.38,0.3906,0.4096,0.4092,0.4172,0.4016,0.4041,0.3877,0.3745,0.3697,0.3555,0.3455,0.3766,0.3763,0.3761,0.3759,0,0.2866,0.2878,0.2916,0.2958,0.2999,0.3045,0.3123,0.3171,0.3326,0.3446,0.3612,0.3736,0.3924,0.3935,0.4044,0.4047,0.3829,0.3995,0.389,0.345,0.3264,0.3152,0.3644,0.3739,0.3741,0.3742,0.3743,0.3744,0.288,0.2899,0.2937,0.2967,0.3003,0.3012,0.3007,0.3097,0.319,0.3319,0.3517,0.3623,0.3744,0.3867,0.3865,0.3713,0.37,0.3561,0.3541,0.343,0.3226,0.3698,0.3758,0.376,0.3762,0.3763,0.3765,0,0.2904,0.2917,0.2947,0.2952,0.2929,0.2966,0.2999,0.2962,0.2995,0.3167,0.3284,0.3386,0.3421,0.3475,0.3415,0.3274,0.3106,0.3166,0.2905,0.2847,0.3302,0.3182,0.3077,0.3077,0.3077,0.3077,0.3078,0.3078,0.2927,0.294,0.2924,0.2864,0.2848,0.2762,0.2737,0.2712,0.2768,0.2807,0.2843,0.2963,0.3118,0.3158,0.3007,0.2924,0.2676,0.2558,0.2564,0.2854,0.2887,0.2918,0.279,0.2605,0.2604,0.196,0.1955,0.1951]},{"header":{"parameterUnit":"m.s-1","parameterCategory":2,"la1":30.2991,"la2":30.254,"lo1":-89.0895,"lo2":-89.0444,"dy":0.0017,"dx":0.0017,"nx":28,"ny":28,"refTime":"2025-01-29T09:00:00:Z","depth":"0","parameterNumber":3,"parameterNumberName":"V-component_of_CURRENTS"},"data":[0,0,0,0,0,0,0,0,0,0,0,0,0,0,0,0,0,0,0,0,0,0,0,0,0,0,0,0,0,0,0,0,0,0,0,0,0,0,0,0,0,0,0,0,0,0,0,0,0,0,0,0,0,0,0,0,0,0,0.0128,0.0127,0,0.006,0.0059,0.0058,0.0007,0.0006,0.0006,0.0006,-0.0083,-0.0085,-0.0087,0,0,0,0,0,0,0,0,0,0,0,0,0,0.0156,0.0156,0.0128,0.0127,0.0127,0.006,0.0059,0.0058,0.0007,0.0006,0.0006,0.0006,-0.0083,-0.0085,-0.0088,0,0,0,0,0,0,0,0,0,0,0,0,0,0.012,0.0156,0.0128,0.0094,0.0091,0.006,0.0059,0.0058,0.0007,0.0006,0.0006,0.0005,-0.0082,-0.0085,-0.0088,-0.0098,0,0,-0.0098,-0.0099,0,0,0,0,0,0,0,0,0.0122,0.0119,0.01,0.0097,0.0093,0.0043,0.0036,0.0005,0.0007,0.0037,0.0006,0.0005,-0.0042,-0.0048,-0.0062,-0.0102,-0.0106,-0.0098,-0.01,-0.0101,-0.0102,0,0,0,0,0,0,0,0.0125,0.0121,0.0099,0.0099,0.0095,0.0063,0.0057,0.003,-0.0001,0.0034,0.0031,0.0026,-0.0044,-0.0059,-0.0065,-0.0107,-0.0098,-0.0101,-0.0102,-0.0104,-0.0158,-0.0158,0,0,0,0,0,0,0.014,0.0124,0.0102,0.0097,0.0108,0.0063,0.0057,0.0058,0.0,-0.0009,0.0027,0.0024,-0.0053,-0.0061,-0.0068,-0.0069,-0.0101,-0.0104,-0.0106,-0.0158,-0.0158,-0.0157,0,0,0,0,0,0,0.0141,0.0139,0.0104,0.011,0.0103,0.0064,0.0065,0.0057,0.0045,-0.0005,-0.0015,0.0024,-0.0054,-0.0063,-0.0086,-0.0073,-0.0105,-0.0108,-0.0159,-0.0158,-0.0158,-0.0079,0,0,0,0,0,0,0.0142,0.014,0.0146,0.0111,0.0104,0.0098,0.0065,0.0056,0.0044,0.004,-0.0011,-0.002,-0.0055,-0.0081,-0.0089,-0.0078,-0.0111,-0.0159,-0.0159,-0.0158,-0.0082,-0.0076,-0.0071,0,0,0,0,0,0.0143,0.016,0.0147,0.0144,0.0114,0.0098,0.0092,0.006,0.0044,0.0046,0.0011,-0.0018,-0.0081,-0.0083,-0.0092,-0.0082,-0.016,-0.0159,-0.0158,-0.0085,-0.0077,-0.0071,0,0,0,0,0,0,0.0175,0.0155,0.014,0.0149,0.0129,0.0091,0.009,0.0068,0.0041,0.0038,-0.0013,-0.0024,-0.004,-0.0071,-0.0071,-0.0096,-0.0125,-0.0126,-0.0067,-0.006,-0.0054,-0.0029,-0.0113,0,0,0,0,0,0.0186,0.0191,0.0165,0.0171,0.0165,0.0129,0.0118,0.0099,0.007,0.0058,0.0022,-0.0015,-0.0044,-0.0059,-0.009,-0.0101,-0.0119,-0.0102,-0.0096,-0.009,-0.0077,-0.0097,-0.0091,-0.0154,-0.0154,-0.0154,0,0,0.0197,0.0189,0.019,0.0178,0.0159,0.0163,0.0121,0.0115,0.0118,0.0053,0.0046,0.0005,-0.0042,-0.0056,-0.0066,-0.008,-0.008,-0.0089,-0.0084,-0.0073,-0.0095,-0.0088,-0.0083,-0.0154,-0.0154,-0.0154,0,0,0.0231,0.022,0.0237,0.0229,0.0212,0.0192,0.0196,0.0164,0.0149,0.0134,0.009,0.0063,0.0015,-0.0012,-0.0034,-0.0013,-0.0049,-0.0028,0.0024,0.0005,0.001,0.0015,0.0012,0.0015,-0.0024,-0.0024,-0.0023,0,0.0247,0.0267,0.0239,0.0256,0.0258,0.0212,0.0234,0.0214,0.0178,0.0176,0.0144,0.0086,0.0039,0.0031,0.0029,0.0003,-0.001,0.0002,0.0014,0.0018,0.0021,0.0017,0.002,-0.002,-0.002,-0.0021,-0.0021,0,0.0294,0.031,0.0322,0.0329,0.0325,0.0337,0.031,0.0307,0.0279,0.0255,0.0238,0.0173,0.0142,0.0117,0.0074,0.0077,0.006,0.0025,0.0001,0.0033,0.0026,0.0028,-0.0014,-0.0016,-0.0017,-0.0018,0,0,0.0333,0.0353,0.0358,0.0378,0.0368,0.0374,0.0385,0.0384,0.0409,0.0352,0.038,0.0298,0.026,0.0233,0.0178,0.0153,0.0153,0.0101,0.0098,0.0108,0.0126,0.0127,0.0129,0.0118,0.0119,0.0119,0.0116,0,0.038,0.0437,0.0427,0.0475,0.0503,0.0475,0.0498,0.049,0.0471,0.0487,0.0416,0.0418,0.0305,0.0306,0.0253,0.0192,0.016,0.0159,0.0085,0.0083,0.0088,0.0132,0.0118,0.0115,0.0118,0.0118,0.0118,0,0.0433,0.0467,0.0526,0.0568,0.0578,0.0598,0.0635,0.0652,0.0652,0.0643,0.0612,0.0563,0.0522,0.0428,0.0318,0.0323,0.0226,0.0165,0.0163,0.014,0.0088,0.008,0.0118,-0.0045,0.012,0.012,0.012,0,0.0488,0.0537,0.059,0.0602,0.0638,0.0664,0.069,0.0702,0.0756,0.0761,0.0813,0.0714,0.0716,0.0574,0.0422,0.0375,0.0318,0.0237,0.0146,0.0145,0.0108,0.0104,-0.0011,0.0155,0.0155,0.0155,0.0155,0,0.0549,0.0593,0.0624,0.0656,0.0742,0.0736,0.0833,0.0845,0.0905,0.101,0.0906,0.098,0.0752,0.0686,0.0501,0.0353,0.0373,0.0175,0.0149,0.0136,0.0134,-0.0031,-0.0129,0.0155,0.0155,0.0155,0.0155,0,0.0608,0.0622,0.0694,0.0746,0.0773,0.0841,0.0955,0.1036,0.1074,0.1218,0.1244,0.1198,0.1107,0.0885,0.0686,0.0493,0.0241,0.0269,0.028,0.0254,-0.001,-0.0102,-0.0229,-0.0296,0.0162,0.0162,0.0162,0,0.0649,0.069,0.0772,0.0841,0.0871,0.0974,0.1065,0.1121,0.1229,0.1376,0.147,0.1427,0.1433,0.1143,0.0777,0.0473,0.0277,0.0262,0.0149,-0.0003,-0.0126,-0.0196,-0.0249,0.0131,0.0131,0.0131,0.0131,0,0.0742,0.0762,0.083,0.0965,0.1064,0.1188,0.1322,0.1431,0.154,0.167,0.1835,0.1864,0.1581,0.1261,0.0826,0.0596,0.0147,0.0249,0.008,-0.0158,-0.0229,-0.0312,0.0122,0.0129,0.013,0.013,0.013,0.013,0.0824,0.0896,0.0989,0.1114,0.1236,0.1397,0.1515,0.1675,0.1871,0.2078,0.2096,0.2159,0.1674,0.107,0.0764,0.0141,0.0133,-0.0065,-0.0161,-0.0213,-0.0294,0.0156,0.0138,0.0139,0.0139,0.0139,0.0139,0,0.0938,0.1018,0.1141,0.1291,0.143,0.147,0.1688,0.1817,0.2054,0.2229,0.2364,0.2134,0.1594,0.0998,0.0162,-0.0209,-0.036,-0.0412,-0.0541,-0.0575,-0.0187,-0.0205,-0.0282,-0.0282,-0.0282,-0.0282,-0.0282,-0.0281,0.1013,0.1141,0.119,0.1427,0.1534,0.1727,0.1848,0.2046,0.2196,0.2375,0.2375,0.2351,0.1826,0.0483,-0.0405,-0.0591,-0.0851,-0.0907,-0.101,-0.0788,-0.0764,-0.0741,-0.0781,-0.0978,-0.0978,-0.1363,-0.1367,-0.137]}],[{"header":{"parameterUnit":"m.s-1","parameterCategory":2,"la1":30.2991,"la2":30.254,"lo1":-89.0895,"lo2":-89.0444,"dy":0.0017,"dx":0.0017,"nx":28,"ny":28,"refTime":"2025-01-29T09:00:00:Z","depth":"2","parameterNumber":2,"parameterNumberName":"U-component_of_CURRENTS"},"data":[0,0,0,0,0,0,0,0,0,0,0,0,0,0,0,0,0,0,0,0,0,0,0,0,0,0,0,0,0,0,0,0,0,0,0,0,0,0,0,0,0,0,0,0,0,0,0,0,0,0,0,0,0,0,0,0,0,0,0.2526,0.2527,0,0.2556,0.2557,0.2557,0.2561,0.2561,0.2561,0.256,0.2577,0.2577,0.2578,0,0,0,0,0,0,0,0,0,0,0,0,0,0.2489,0.249,0.2526,0.2527,0.2527,0.2556,0.2557,0.2557,0.2561,0.2561,0.256,0.256,0.2577,0.2577,0.2578,0,0,0,0,0,0,0,0,0,0,0,0,0,0.2509,0.249,0.2526,0.2534,0.2535,0.2556,0.2557,0.2557,0.2561,0.2561,0.256,0.256,0.2576,0.2577,0.2578,0.2587,0,0,0.2581,0.2581,0,0,0,0,0,0,0,0,0.2508,0.251,0.2532,0.2534,0.2535,0.2556,0.255,0.2567,0.2561,0.2549,0.256,0.256,0.257,0.2571,0.2575,0.2588,0.2588,0.2581,0.2581,0.2582,0.2582,0,0,0,0,0,0,0,0.2507,0.2509,0.2536,0.2533,0.2535,0.2542,0.2545,0.2553,0.2559,0.255,0.2551,0.2557,0.257,0.2574,0.2575,0.2589,0.2581,0.2581,0.2582,0.2582,0.2657,0.2658,0,0,0,0,0,0,0.2506,0.2508,0.2535,0.2537,0.2523,0.2543,0.2546,0.2548,0.2559,0.2561,0.2557,0.2557,0.2573,0.2574,0.2576,0.2625,0.2582,0.2582,0.2583,0.2656,0.2657,0.2659,0,0,0,0,0,0,0.2505,0.2508,0.2534,0.2525,0.2529,0.2544,0.2547,0.2549,0.2564,0.2565,0.2566,0.2571,0.2573,0.2575,0.26,0.2624,0.2583,0.2583,0.2654,0.2656,0.2658,0.2698,0,0,0,0,0,0,0.2504,0.2507,0.2513,0.2525,0.253,0.2557,0.2547,0.255,0.2568,0.2568,0.2577,0.2578,0.2573,0.2599,0.2601,0.2624,0.2584,0.2652,0.2655,0.2657,0.2695,0.2701,0.2707,0,0,0,0,0,0.2502,0.2508,0.2513,0.2517,0.2536,0.2558,0.2561,0.2569,0.2569,0.2581,0.259,0.2578,0.2619,0.2601,0.2603,0.2627,0.2651,0.2654,0.2657,0.2692,0.27,0.2707,0,0,0,0,0,0,0.2493,0.251,0.2515,0.2526,0.2546,0.2559,0.2572,0.2578,0.2595,0.2598,0.2595,0.2597,0.263,0.2626,0.2607,0.2659,0.2634,0.2638,0.2659,0.2667,0.2673,0.268,0.2585,0,0,0,0,0,0.2495,0.2505,0.2525,0.2535,0.2547,0.2562,0.2574,0.2583,0.2598,0.2605,0.2612,0.2625,0.2645,0.2653,0.2667,0.2692,0.271,0.271,0.2716,0.2721,0.2731,0.2785,0.2797,0.267,0.267,0.267,0,0,0.2493,0.2505,0.251,0.2534,0.255,0.2571,0.2569,0.2594,0.2614,0.2605,0.2635,0.2648,0.2658,0.2689,0.2703,0.2688,0.2769,0.2726,0.273,0.2736,0.279,0.2802,0.2813,0.2672,0.2672,0.2671,0,0,0.2495,0.2508,0.252,0.2541,0.2572,0.2585,0.2596,0.2621,0.2636,0.2667,0.2672,0.2702,0.2721,0.2739,0.2748,0.2797,0.2802,0.2801,0.2834,0.2887,0.2898,0.2907,0.295,0.2964,0.28,0.2801,0.2801,0,0.2494,0.251,0.2528,0.2549,0.2568,0.2593,0.2615,0.2637,0.2667,0.269,0.2683,0.2744,0.2747,0.2797,0.2812,0.2811,0.284,0.2802,0.2895,0.2905,0.2914,0.2956,0.297,0.2803,0.2803,0.2802,0.2802,0,0.2506,0.2525,0.2537,0.257,0.2594,0.262,0.2653,0.2684,0.2705,0.2729,0.2788,0.2804,0.2841,0.2849,0.2842,0.2913,0.2912,0.2898,0.2874,0.2929,0.2969,0.2984,0.2806,0.2805,0.2805,0.2804,0,0,0.2484,0.2535,0.2539,0.2559,0.261,0.2627,0.2675,0.2725,0.2767,0.2801,0.2861,0.2892,0.2911,0.2924,0.2931,0.2972,0.3057,0.2964,0.2965,0.3003,0.3177,0.3112,0.3121,0.3062,0.3065,0.3067,0.318,0,0.249,0.2524,0.2554,0.2592,0.2613,0.2659,0.2702,0.2753,0.2802,0.2868,0.2908,0.2967,0.2937,0.2971,0.3006,0.3054,0.3095,0.3027,0.3122,0.3124,0.3057,0.3135,0.2884,0.2958,0.3194,0.3196,0.3198,0,0.2487,0.2513,0.2548,0.2606,0.2622,0.2651,0.2732,0.2776,0.2875,0.2923,0.2991,0.3031,0.3108,0.3075,0.3177,0.3138,0.3161,0.3186,0.3191,0.3126,0.3085,0.2941,0.2974,0.3221,0.3219,0.3217,0.3216,0,0.245,0.2506,0.2533,0.2552,0.2624,0.2655,0.2698,0.2789,0.2849,0.297,0.3039,0.3122,0.3189,0.3234,0.3277,0.3243,0.339,0.3346,0.3309,0.3304,0.3106,0.3079,0.342,0.342,0.342,0.3419,0.3419,0,0.2436,0.2456,0.2517,0.2531,0.2575,0.2632,0.2703,0.2768,0.2887,0.297,0.3062,0.3145,0.3236,0.3321,0.3331,0.3372,0.3434,0.3338,0.3339,0.3112,0.3086,0.3318,0.3305,0.3423,0.3423,0.3422,0.3421,0,0.2388,0.243,0.2462,0.2532,0.2556,0.2585,0.2697,0.276,0.2876,0.2996,0.3046,0.3201,0.3307,0.3382,0.3481,0.3447,0.3488,0.3481,0.3208,0.3174,0.3352,0.334,0.3456,0.3455,0.3454,0.3453,0.3453,0,0.2367,0.2377,0.2444,0.2469,0.2502,0.2563,0.2617,0.2739,0.2809,0.3012,0.3063,0.3229,0.3306,0.3437,0.3425,0.3456,0.35,0.323,0.3108,0.3372,0.3361,0.335,0.3339,0.2865,0.2859,0.2855,0.2851,0,0.2331,0.2356,0.2389,0.2428,0.2479,0.2525,0.2602,0.2655,0.2807,0.2905,0.303,0.3116,0.3261,0.3184,0.3245,0.3216,0.3202,0.314,0.3511,0.289,0.2822,0.2808,0.2816,0.2811,0.2815,0.2818,0.282,0.2822,0.2311,0.2314,0.2357,0.2381,0.2434,0.2452,0.2459,0.2545,0.2617,0.2711,0.2877,0.2912,0.2983,0.2934,0.2866,0.2818,0.3023,0.288,0.289,0.2906,0.2814,0.2746,0.2705,0.2708,0.2711,0.2713,0.2716,0,0.2267,0.2276,0.2307,0.2312,0.2305,0.2377,0.2424,0.2393,0.2406,0.253,0.2597,0.2437,0.2419,0.2483,0.2356,0.2372,0.2316,0.2272,0.2168,0.2212,0.225,0.2118,0.1828,0.1825,0.1822,0.1819,0,0,0.2251,0.224,0.2234,0.2175,0.2186,0.215,0.2154,0.2116,0.215,0.2111,0.2115,0.2311,0.2428,0.2088,0.2063,0.1921,0.2043,0.1851,0.2573,0.2496,0.2529,0.2625,0.2476,0,0,0,0,0]},{"header":{"parameterUnit":"m.s-1","parameterCategory":2,"la1":30.2991,"la2":30.254,"lo1":-89.0895,"lo2":-89.0444,"dy":0.0017,"dx":0.0017,"nx":28,"ny":28,"refTime":"2025-01-29T09:00:00:Z","depth":"2","parameterNumber":3,"parameterNumberName":"V-component_of_CURRENTS"},"data":[0,0,0,0,0,0,0,0,0,0,0,0,0,0,0,0,0,0,0,0,0,0,0,0,0,0,0,0,0,0,0,0,0,0,0,0,0,0,0,0,0,0,0,0,0,0,0,0,0,0,0,0,0,0,0,0,0,0,0.0126,0.0125,0,0.0067,0.0066,0.0065,0.0024,0.0024,0.0024,0.0024,-0.0056,-0.0058,-0.006,0,0,0,0,0,0,0,0,0,0,0,0,0,0.0147,0.0147,0.0126,0.0125,0.0125,0.0067,0.0066,0.0065,0.0024,0.0024,0.0024,0.0024,-0.0055,-0.0058,-0.006,0,0,0,0,0,0,0,0,0,0,0,0,0,0.0117,0.0147,0.0126,0.0099,0.0096,0.0067,0.0066,0.0065,0.0024,0.0024,0.0024,0.0023,-0.0055,-0.0057,-0.006,-0.0074,0,0,-0.0069,-0.0071,0,0,0,0,0,0,0,0,0.0118,0.0116,0.0103,0.0101,0.0097,0.0054,0.0044,0.0018,0.0024,0.005,0.0024,0.0023,-0.002,-0.0026,-0.0038,-0.0077,-0.0081,-0.007,-0.0071,-0.0073,-0.0074,0,0,0,0,0,0,0,0.0121,0.0118,0.0101,0.0103,0.0099,0.007,0.0066,0.0039,0.0015,0.0047,0.0045,0.0041,-0.0022,-0.0035,-0.004,-0.0082,-0.007,-0.0072,-0.0074,-0.0075,-0.0129,-0.0128,0,0,0,0,0,0,0.0134,0.012,0.0103,0.0099,0.0109,0.007,0.0065,0.0067,0.0016,0.0009,0.0041,0.0039,-0.003,-0.0037,-0.0043,-0.0045,-0.0073,-0.0075,-0.0077,-0.0129,-0.0129,-0.0128,0,0,0,0,0,0,0.0135,0.0134,0.0105,0.0109,0.0104,0.0071,0.0072,0.0066,0.0055,0.0012,0.0003,0.0038,-0.0031,-0.0039,-0.006,-0.0049,-0.0077,-0.0079,-0.0129,-0.0129,-0.0128,-0.006,0,0,0,0,0,0,0.0136,0.0135,0.0138,0.011,0.0104,0.0097,0.0072,0.0065,0.0054,0.005,0.0006,-0.0002,-0.0031,-0.0055,-0.0063,-0.0054,-0.0082,-0.013,-0.0129,-0.0129,-0.0062,-0.0057,-0.0052,0,0,0,0,0,0.0137,0.0148,0.0139,0.0137,0.0111,0.0098,0.0092,0.0065,0.0054,0.0054,0.0025,-0.0,-0.0057,-0.0057,-0.0067,-0.0058,-0.013,-0.0129,-0.0129,-0.0065,-0.0058,-0.0052,0,0,0,0,0,0,0.0157,0.0144,0.0134,0.0139,0.0123,0.0092,0.0089,0.0071,0.0048,0.0045,0.0003,-0.0007,-0.0021,-0.0049,-0.0049,-0.0072,-0.0097,-0.0098,-0.0046,-0.004,-0.0035,-0.0017,-0.0084,0,0,0,0,0,0.0165,0.0171,0.015,0.0154,0.0149,0.012,0.011,0.0095,0.0071,0.006,0.003,-0.0001,-0.0026,-0.004,-0.0067,-0.0079,-0.0107,-0.008,-0.0075,-0.007,-0.0062,-0.0092,-0.0089,-0.0126,-0.0126,-0.0126,0,0,0.0173,0.0167,0.0169,0.0158,0.0143,0.0147,0.0113,0.0107,0.011,0.0056,0.0049,0.0015,-0.0026,-0.0038,-0.0048,-0.006,-0.0075,-0.0069,-0.0065,-0.0059,-0.0091,-0.0088,-0.0084,-0.0125,-0.0125,-0.0125,0,0,0.0197,0.0188,0.0202,0.0196,0.0183,0.0168,0.017,0.0145,0.0133,0.0119,0.0084,0.0061,0.0019,-0.0003,-0.0021,-0.0004,-0.0047,-0.0016,0.0025,-0.0005,-0.0002,0.0001,-0.0029,-0.003,-0.0013,-0.0013,-0.0013,0,0.0207,0.0224,0.0203,0.0217,0.0219,0.0184,0.0202,0.0185,0.0155,0.0151,0.0127,0.0075,0.0038,0.0028,0.0031,0.0009,-0.0017,0.0007,0.0003,0.0005,0.0006,-0.0025,-0.0027,-0.001,-0.001,-0.001,-0.0011,0,0.0243,0.0257,0.0266,0.0275,0.0273,0.0282,0.0263,0.0259,0.0237,0.0216,0.0197,0.0145,0.0116,0.0098,0.0067,0.0061,0.0037,0.0014,-0.0009,0.0014,-0.0021,-0.0024,-0.0005,-0.0006,-0.0007,-0.0008,0,0,0.0268,0.0289,0.0293,0.0313,0.0308,0.0314,0.0322,0.032,0.0333,0.0289,0.0299,0.0242,0.0209,0.0187,0.0144,0.0114,0.0095,0.0071,0.0068,0.0049,0.0028,-0.0001,-0.0008,0.0069,0.0069,0.0069,0.0001,0,0.0304,0.0351,0.0348,0.0391,0.0414,0.0395,0.0409,0.0401,0.0382,0.0381,0.0324,0.031,0.0245,0.0234,0.0194,0.0124,0.0089,0.0115,0.0003,-0.0,-0.0023,-0.0011,0.0019,-0.004,-0.0002,-0.0003,-0.0003,0,0.0344,0.0373,0.0423,0.0461,0.047,0.0486,0.0509,0.0519,0.0503,0.0489,0.0459,0.041,0.0365,0.0306,0.0193,0.0212,0.0128,0.0065,0.006,0.0008,-0.0035,-0.0058,-0.0048,-0.0009,-0.0008,-0.0008,-0.0008,0,0.0382,0.0428,0.0473,0.0485,0.0516,0.0536,0.0552,0.055,0.0579,0.0561,0.0577,0.0498,0.0477,0.036,0.0219,0.0207,0.0092,0.0059,-0.0048,-0.0051,-0.0059,-0.0063,-0.002,-0.002,-0.002,-0.002,-0.002,0,0.0426,0.0463,0.0496,0.0523,0.0583,0.0584,0.0645,0.0646,0.0671,0.0717,0.0638,0.0654,0.0489,0.04,0.0255,0.0096,0.0115,-0.0036,-0.0068,-0.0035,-0.0036,-0.0037,-0.0038,-0.0022,-0.0022,-0.0021,-0.0021,0,0.0458,0.0479,0.0538,0.0584,0.0604,0.0647,0.0721,0.077,0.0776,0.0837,0.084,0.0779,0.0659,0.0481,0.0296,0.0157,-0.0001,-0.0064,-0.0016,-0.0042,-0.0134,-0.0131,-0.0185,-0.0187,-0.0188,-0.0189,-0.019,0,0.0479,0.0511,0.0584,0.063,0.0653,0.0723,0.0781,0.082,0.0883,0.0915,0.0956,0.0865,0.0815,0.0533,0.0273,0.0019,-0.0014,-0.0124,-0.0145,-0.0124,-0.015,-0.0145,-0.014,-0.013,-0.0131,-0.0131,-0.0131,0,0.0516,0.054,0.0592,0.0683,0.0753,0.0842,0.0926,0.0995,0.1048,0.1099,0.1137,0.1097,0.0839,0.0594,0.0246,0.0071,-0.0083,-0.0139,-0.0123,-0.0094,-0.0078,-0.0102,-0.0098,-0.0134,-0.0134,-0.0133,-0.0133,-0.0133,0.0543,0.0584,0.065,0.0738,0.0828,0.0935,0.1017,0.1115,0.1219,0.129,0.126,0.1217,0.0938,0.0502,0.0201,-0.0109,-0.0102,-0.0208,-0.0205,-0.0202,-0.0183,-0.0171,-0.0241,-0.0241,-0.0242,-0.0242,-0.0242,0,0.0568,0.0616,0.07,0.0804,0.0902,0.095,0.1098,0.1179,0.1302,0.1374,0.1398,0.1139,0.0875,0.0558,0.0103,-0.0179,-0.0195,-0.0268,-0.0216,-0.0212,-0.0208,-0.0189,-0.0249,-0.025,-0.025,-0.0251,0,0,0.0581,0.0653,0.0694,0.0837,0.0922,0.1058,0.1149,0.1263,0.1353,0.1408,0.1407,0.1359,0.0987,0.0658,0.0276,0.0022,-0.0032,-0.0036,-0.0001,0.011,0.0118,-0.0146,-0.0108,0,0,0,0,0]}],[{"header":{"parameterUnit":"m.s-1","parameterCategory":2,"la1":30.2991,"la2":30.254,"lo1":-89.0895,"lo2":-89.0444,"dy":0.0017,"dx":0.0017,"nx":28,"ny":28,"refTime":"2025-01-29T09:00:00:Z","depth":"4","parameterNumber":2,"parameterNumberName":"U-component_of_CURRENTS"},"data":[0,0,0,0,0,0,0,0,0,0,0,0,0,0,0,0,0,0,0,0,0,0,0,0,0,0,0,0,0,0,0,0,0,0,0,0,0,0,0,0,0,0,0,0,0,0,0,0,0,0,0,0,0,0,0,0,0,0,0.1652,0.1652,0,0.172,0.1721,0.1721,0.1777,0.1778,0.1779,0.1779,0.1872,0.1873,0.1875,0,0,0,0,0,0,0,0,0,0,0,0,0,0.1573,0.1574,0.1652,0.1653,0.1654,0.172,0.1721,0.1722,0.1777,0.1778,0.1779,0.178,0.1871,0.1873,0.1875,0,0,0,0,0,0,0,0,0,0,0,0,0,0.162,0.1575,0.1651,0.169,0.1694,0.172,0.1721,0.1722,0.1777,0.1778,0.1779,0.178,0.187,0.1873,0.1876,0.1872,0,0,0.1884,0.1885,0,0,0,0,0,0,0,0,0.1617,0.1623,0.1684,0.1688,0.1692,0.1742,0.1727,0.1774,0.1777,0.1744,0.1779,0.1781,0.1831,0.1837,0.1845,0.1876,0.188,0.1884,0.1886,0.1887,0.1888,0,0,0,0,0,0,0,0.1614,0.162,0.1677,0.1685,0.169,0.1706,0.1713,0.1736,0.178,0.1747,0.1752,0.1761,0.1833,0.1842,0.1848,0.1881,0.1884,0.1887,0.1888,0.1889,0.2021,0.2023,0,0,0,0,0,0,0.1607,0.1617,0.1675,0.168,0.1658,0.1706,0.1715,0.1724,0.178,0.1789,0.176,0.1764,0.1837,0.1845,0.1851,0.1943,0.1887,0.189,0.1891,0.2019,0.2022,0.2024,0,0,0,0,0,0,0.1605,0.1611,0.1673,0.1651,0.166,0.1707,0.1717,0.1725,0.177,0.1789,0.18,0.1801,0.1838,0.1848,0.1907,0.1943,0.1891,0.1893,0.2017,0.202,0.2023,0.2066,0,0,0,0,0,0,0.1602,0.161,0.1632,0.165,0.1661,0.171,0.1716,0.1726,0.1773,0.1779,0.1827,0.1835,0.184,0.1903,0.191,0.1946,0.1895,0.2015,0.2018,0.2022,0.2062,0.2069,0.2076,0,0,0,0,0,0.1599,0.1617,0.1632,0.1641,0.1684,0.1711,0.1719,0.1754,0.1774,0.1798,0.1837,0.1835,0.193,0.1907,0.1914,0.1952,0.2013,0.2017,0.2021,0.2059,0.2068,0.2076,0,0,0,0,0,0,0.1596,0.1625,0.1642,0.167,0.1701,0.1722,0.1752,0.1773,0.1821,0.1841,0.1857,0.1867,0.1933,0.1939,0.1912,0.2002,0.1972,0.1978,0.1998,0.2007,0.2014,0.2011,0.1898,0,0,0,0,0,0.1604,0.1629,0.1655,0.1683,0.1701,0.1734,0.1757,0.1782,0.1817,0.1841,0.1874,0.1914,0.1949,0.1976,0.2006,0.2053,0.2061,0.2084,0.2091,0.2097,0.2102,0.2151,0.2162,0.2037,0.2037,0.2037,0,0,0.161,0.1631,0.1647,0.1685,0.1714,0.1742,0.1752,0.1797,0.1831,0.1842,0.1912,0.1943,0.1969,0.2024,0.2054,0.2038,0.2137,0.2103,0.2107,0.2109,0.2156,0.2168,0.2179,0.204,0.204,0.2039,0,0,0.1622,0.1657,0.1679,0.1706,0.1755,0.1774,0.1795,0.1839,0.1875,0.1933,0.1955,0.2009,0.2063,0.2089,0.2106,0.2172,0.2174,0.2189,0.2224,0.2272,0.2282,0.2291,0.2313,0.2324,0.2192,0.2192,0.2192,0,0.1633,0.1661,0.1691,0.1718,0.1747,0.1792,0.1822,0.186,0.1921,0.1956,0.1966,0.2068,0.2091,0.2154,0.2179,0.2188,0.2209,0.2185,0.228,0.2289,0.2298,0.2318,0.233,0.2195,0.2194,0.2194,0.2194,0,0.1649,0.1687,0.1706,0.1754,0.1788,0.1826,0.1873,0.1926,0.1975,0.201,0.2099,0.2136,0.2195,0.2214,0.2217,0.2296,0.2289,0.2282,0.2253,0.2313,0.2331,0.2342,0.2198,0.2197,0.2197,0.2196,0,0,0.1629,0.1703,0.1713,0.1744,0.1814,0.1838,0.1907,0.1972,0.2027,0.2095,0.2165,0.2231,0.2264,0.2286,0.2307,0.2348,0.2424,0.2348,0.2349,0.236,0.2524,0.2357,0.2353,0.2442,0.2444,0.2446,0.2509,0,0.1638,0.1689,0.1727,0.1787,0.1817,0.1882,0.1938,0.2008,0.2075,0.2155,0.2215,0.2292,0.2287,0.2334,0.2374,0.2421,0.2457,0.2407,0.2472,0.2474,0.2311,0.2361,0.2454,0.2518,0.252,0.2522,0.2523,0,0.1633,0.1672,0.1727,0.1807,0.1829,0.1876,0.1979,0.2036,0.2149,0.2208,0.2293,0.2347,0.2434,0.2419,0.2518,0.2492,0.2513,0.2534,0.2537,0.2372,0.2326,0.2449,0.2543,0.2541,0.254,0.2538,0.2537,0,0.1587,0.1668,0.1715,0.1743,0.184,0.189,0.1951,0.2058,0.2123,0.2255,0.2322,0.242,0.2493,0.2542,0.2589,0.2572,0.2681,0.2659,0.2523,0.2511,0.2623,0.2613,0.2721,0.2721,0.2721,0.2721,0.2721,0,0.156,0.1602,0.1705,0.1729,0.1797,0.1874,0.1964,0.204,0.2166,0.2238,0.2351,0.2417,0.2534,0.2605,0.2623,0.26,0.271,0.2532,0.2519,0.2639,0.263,0.263,0.2619,0.2723,0.2723,0.2722,0.2722,0,0.1494,0.1565,0.1623,0.1735,0.1776,0.1825,0.1963,0.202,0.2154,0.2255,0.2308,0.2454,0.2532,0.2613,0.27,0.2629,0.2635,0.2599,0.2722,0.2715,0.2423,0.2414,0.2445,0.2439,0.2435,0.2431,0.2428,0,0.146,0.1487,0.161,0.1647,0.1704,0.1796,0.1854,0.1998,0.2057,0.2247,0.2277,0.2419,0.2492,0.2479,0.257,0.2586,0.2557,0.254,0.247,0.2411,0.2397,0.2395,0.2391,0.2421,0.242,0.2418,0.2417,0,0.1393,0.1453,0.1499,0.1576,0.1644,0.1708,0.1804,0.1837,0.1992,0.2142,0.2197,0.2245,0.2323,0.2373,0.2407,0.2413,0.2539,0.2492,0.25,0.2435,0.2383,0.2373,0.2375,0.2402,0.2404,0.2405,0.2406,0,0.1345,0.1356,0.1427,0.1479,0.1557,0.1581,0.1652,0.1718,0.1797,0.2001,0.2014,0.2156,0.2296,0.2284,0.2314,0.2308,0.2268,0.2189,0.2213,0.2231,0.213,0.2031,0.1933,0,0,0,0,0,0.1283,0.1279,0.1322,0.1363,0.1435,0.148,0.1595,0.1671,0.1825,0.1812,0.1909,0.1969,0.2017,0.2095,0.2044,0.2213,0.2273,0.2144,0.2193,0.2315,0.2333,0.2233,0,0,0,0,0,0,0.1237,0.1271,0.1276,0.1251,0.126,0.1321,0.1386,0.1496,0.15,0.1671,0.171,0.1845,0.1923,0.2022,0.2005,0.2027,0.2016,0.224,0.2235,0.2305,0.2321,0.2336,0.2239,0,0,0,0,0]},{"header":{"parameterUnit":"m.s-1","parameterCategory":2,"la1":30.2991,"la2":30.254,"lo1":-89.0895,"lo2":-89.0444,"dy":0.0017,"dx":0.0017,"nx":28,"ny":28,"refTime":"2025-01-29T09:00:00:Z","depth":"4","parameterNumber":3,"parameterNumberName":"V-component_of_CURRENTS"},"data":[0,0,0,0,0,0,0,0,0,0,0,0,0,0,0,0,0,0,0,0,0,0,0,0,0,0,0,0,0,0,0,0,0,0,0,0,0,0,0,0,0,0,0,0,0,0,0,0,0,0,0,0,0,0,0,0,0,0,0.0119,0.0119,0,0.008,0.0079,0.0079,0.0053,0.0053,0.0053,0.0053,-0.0006,-0.0007,-0.0009,0,0,0,0,0,0,0,0,0,0,0,0,0,0.0131,0.0132,0.0119,0.0119,0.0118,0.008,0.0079,0.0079,0.0053,0.0053,0.0053,0.0052,-0.0006,-0.0007,-0.0009,0,0,0,0,0,0,0,0,0,0,0,0,0,0.0112,0.0132,0.0119,0.0102,0.01,0.008,0.0079,0.0078,0.0053,0.0053,0.0053,0.0052,-0.0005,-0.0007,-0.0009,-0.0021,0,0,-0.0016,-0.0017,0,0,0,0,0,0,0,0,0.0113,0.0111,0.0105,0.0103,0.0101,0.0072,0.0062,0.0045,0.0053,0.0069,0.0053,0.0052,0.0019,0.0015,0.0006,-0.0024,-0.0026,-0.0016,-0.0018,-0.0019,-0.0019,0,0,0,0,0,0,0,0.0114,0.0112,0.0102,0.0104,0.0102,0.0082,0.0079,0.0058,0.0044,0.0068,0.0066,0.0064,0.0018,0.0009,0.0005,-0.0027,-0.0016,-0.0018,-0.002,-0.0021,-0.0062,-0.0062,0,0,0,0,0,0,0.0124,0.0114,0.0104,0.0101,0.0108,0.0082,0.0079,0.008,0.0045,0.004,0.0064,0.0063,0.0013,0.0007,0.0003,0.0003,-0.0019,-0.0021,-0.0022,-0.0062,-0.0062,-0.0062,0,0,0,0,0,0,0.0124,0.0123,0.0105,0.0107,0.0104,0.0082,0.0084,0.008,0.0074,0.0042,0.0036,0.0063,0.0012,0.0006,-0.0009,-0.0,-0.0022,-0.0024,-0.0063,-0.0062,-0.0062,-0.0007,0,0,0,0,0,0,0.0125,0.0124,0.0128,0.0108,0.0104,0.01,0.0084,0.0079,0.0073,0.0071,0.0039,0.0033,0.0012,-0.0005,-0.0011,-0.0004,-0.0026,-0.0063,-0.0063,-0.0062,-0.0009,-0.0005,-0.0001,0,0,0,0,0,0.0125,0.0133,0.0128,0.0127,0.0111,0.0101,0.0097,0.008,0.0073,0.0073,0.0053,0.0034,-0.0007,-0.0007,-0.0014,-0.0007,-0.0063,-0.0063,-0.0062,-0.0011,-0.0006,-0.0001,0,0,0,0,0,0,0.0138,0.0131,0.0125,0.0129,0.0119,0.0097,0.0096,0.0084,0.0069,0.0068,0.0037,0.003,0.002,-0.0002,-0.0001,-0.0018,-0.0038,-0.0039,0.0003,0.0008,0.0012,0.0025,-0.0027,0,0,0,0,0,0.0144,0.015,0.0136,0.0139,0.0137,0.0117,0.0111,0.0102,0.0085,0.0078,0.0056,0.0034,0.0016,0.0006,-0.0015,-0.0024,-0.0051,-0.0024,-0.002,-0.0016,-0.0011,-0.0043,-0.0041,-0.006,-0.006,-0.006,0,0,0.015,0.0146,0.0149,0.0143,0.0133,0.0138,0.0113,0.011,0.0114,0.0074,0.0072,0.0046,0.0016,0.0008,0.0001,-0.0008,-0.0027,-0.0016,-0.0012,-0.0009,-0.0042,-0.004,-0.0039,-0.006,-0.006,-0.006,0,0,0.0166,0.0162,0.0173,0.017,0.0163,0.0153,0.0155,0.0138,0.0131,0.0123,0.0098,0.0081,0.0051,0.0035,0.0022,0.0034,-0.0005,0.0025,0.0057,0.0026,0.0027,0.0028,-0.0008,-0.0011,0.0028,0.0028,0.0028,0,0.0173,0.0187,0.0173,0.0185,0.0189,0.0165,0.0179,0.0168,0.0149,0.0146,0.013,0.0091,0.0066,0.0058,0.0062,0.0045,0.0016,0.0043,0.0032,0.0032,0.0032,-0.0005,-0.0009,0.0031,0.003,0.003,0.003,0,0.0198,0.0211,0.0218,0.0228,0.0229,0.0236,0.0225,0.0225,0.0211,0.0196,0.0182,0.0145,0.0123,0.0111,0.009,0.008,0.0056,0.0041,0.0022,0.0037,-0.0003,-0.0008,0.0035,0.0034,0.0033,0.0032,0,0,0.0212,0.0233,0.0237,0.0254,0.0255,0.0261,0.0271,0.0271,0.0281,0.025,0.0255,0.0218,0.0193,0.0177,0.0146,0.0118,0.0091,0.0083,0.008,0.0052,0.0015,-0.0,-0.0007,0.0071,0.007,0.007,-0.0014,0,0.0237,0.0274,0.0275,0.0311,0.033,0.0322,0.0336,0.0332,0.0318,0.0314,0.0272,0.0261,0.0219,0.0212,0.0177,0.0114,0.0081,0.0115,0.0,-0.0003,-0.0014,-0.0012,0.0069,-0.0018,-0.0019,-0.002,-0.0021,0,0.0262,0.0286,0.0327,0.0363,0.0371,0.0388,0.041,0.0419,0.0405,0.0392,0.0368,0.0331,0.0292,0.0254,0.0151,0.0173,0.0101,0.0046,0.0041,0.0006,-0.0027,-0.0038,-0.003,-0.003,-0.0029,-0.0028,-0.0028,0,0.0283,0.0324,0.0361,0.0373,0.0405,0.0425,0.0442,0.0443,0.0463,0.0443,0.0446,0.0385,0.0359,0.0266,0.0149,0.015,0.0027,0.0012,-0.0071,-0.0074,-0.0059,-0.0059,-0.0061,-0.0061,-0.0061,-0.0061,-0.0061,0,0.0309,0.0341,0.0377,0.0399,0.045,0.046,0.0508,0.051,0.0525,0.0548,0.049,0.0483,0.036,0.0275,0.0165,0.003,0.0034,-0.0066,-0.0094,-0.0035,-0.0032,-0.0063,-0.0062,-0.0064,-0.0063,-0.0063,-0.0062,0,0.0321,0.0346,0.0395,0.0441,0.0462,0.0498,0.0562,0.0593,0.0596,0.0624,0.0623,0.0555,0.044,0.0305,0.0146,0.0055,-0.0075,-0.0127,-0.0057,-0.0081,-0.0159,-0.0154,-0.0219,-0.0221,-0.0222,-0.0222,-0.0223,0,0.0329,0.0355,0.0425,0.0461,0.0486,0.0546,0.059,0.0625,0.066,0.0664,0.0676,0.0585,0.0517,0.0288,0.0135,-0.0078,-0.011,-0.018,-0.0164,-0.0153,-0.0174,-0.0168,-0.0162,-0.0225,-0.0225,-0.0225,-0.0225,0,0.034,0.0366,0.0407,0.0484,0.054,0.0611,0.0674,0.0707,0.0743,0.0751,0.072,0.0606,0.0472,0.0291,0.012,-0.0033,-0.0132,-0.0191,-0.0189,-0.0175,-0.016,-0.0179,-0.0172,-0.0229,-0.0228,-0.0228,-0.0228,0,0.0346,0.0374,0.0431,0.05,0.0574,0.0645,0.0685,0.0728,0.0767,0.0774,0.0758,0.0619,0.0543,0.0313,0.0156,0.0003,-0.0033,-0.0079,-0.0085,-0.0083,-0.0021,0.0021,-0.0016,0,0,0,0,0,0.0348,0.0381,0.0442,0.0521,0.0597,0.0645,0.0726,0.0761,0.0799,0.0787,0.0779,0.0656,0.0431,0.0333,0.0179,0.0121,-0.0073,-0.0067,-0.0132,-0.0248,-0.0244,-0.0196,0,0,0,0,0,0,0.0346,0.04,0.0435,0.0525,0.0582,0.067,0.0725,0.0756,0.0754,0.0766,0.0651,0.0611,0.0391,0.0518,0.0172,0.0126,0.0062,-0.0166,-0.017,-0.025,-0.0247,-0.0244,-0.0193,0,0,0,0,0]}]]